小惑星カリクロ

(10199) Chariklo (2003)

English version
Home page
Updated on September 3, 2011

---------------------------------------------------------------------

・ プロフィール

符号 1997 CU26
発見日 1997年2月15日
発見光度 18.0等
発見者 0.9-m Spacewatch telescope (Kitt Peak)

・ 写真集

・ 軌道要素

The following orbital elements are taken from MPO186498

Epoch 2011 Aug. 27.0 TT = JDT 2455800.5                 MPC
M  44.45049              (2000.0)            P               Q
n   0.01578360     Peri.  241.62217     -0.93702024     +0.06981482
a  15.7397835      Node   300.44931     +0.13938532     -0.82367191
e   0.1699389      Incl.   23.38943     -0.32025739     -0.56275258
P  62.4            H    6.6           G   0.15           U   0
From 533 observations at 16 oppositions, 1988-2009, mean residual 0".46.

・ 光度変化

        H = 6.5  G = 0.15

---------------------------------------------------------------------

軌道要素はMPCのEphemerides and Orbital Elementsに掲載されたものです。
光度グラフはComet for Windowsで作成したものです。

---------------------------------------------------------------------

Copyright(C) Seiichi Yoshida (comet@aerith.net). All rights reserved.